This demonstration page uses our WeatherBlox Daily Observations layout. Learn more.

39.92423, -83.80882

Hourly Observations for June 1, 2017

Temp ( °F °C ) Dew Point ( °F °C ) Humidity (%) Winds ( mph kmh ) Pressure ( in mb ) Visibility ( mi km ) Precip ( " mm )
12:56 am 00:56 Clear 61 16.1 44 6.7 54 54 N 3 6 30.04 1017 10 16.0934 0 0
1:56 am 01:56 Clear 58 14.4 45 7.2 62 62 Calm 30.06 1018 10 16.0934 0 0
2:56 am 02:56 Clear 55 12.8 47 8.3 74 74 Calm 30.06 1018 10 16.0934 0 0
3:56 am 03:56 Clear 53 11.7 47 8.3 80 80 Calm 30.06 1018 10 16.0934 0 0
5:56 am 05:56 Clear 50 10 48 8.9 93 93 SSW 5 7 30.07 1018 10 16.0934 0 0
6:56 am 06:56 Sunny 51 10.6 47 8.3 86 86 Calm 30.09 1019 10 16.0934 0 0
7:56 am 07:56 Sunny 58 14.4 50 10 75 75 SW 5 7 30.1 1019 10 16.0934 0 0
8:56 am 08:56 Sunny 63 17.2 48 8.9 58 58 SSW 3 6 30.11 1020 10 16.0934 0 0
9:56 am 09:56 Sunny 68 20 47 8.3 47 47 SW 6 9 30.11 1020 10 16.0934 0 0
10:56 am 10:56 Sunny 71 21.7 46 7.8 41 41 WNW 7 11 30.11 1020 10 16.0934 0 0
11:56 am 11:56 Sunny 73 22.8 44 6.7 35 35 W 7 11 30.11 1020 10 16.0934 0 0
12:56 pm 12:56 Sunny 73 22.8 45 7.2 37 37 NW 7 11 30.1 1019 10 16.0934 0 0
1:56 pm 13:56 Sunny 75 23.9 44 6.7 33 33 WNW 9 15 30.09 1019 10 16.0934 0 0
2:56 pm 14:56 Sunny 76 24.4 43 6.1 31 31 NW 8 13 30.07 1018 10 16.0934 0 0
3:56 pm 15:56 Sunny 78 25.6 43 6.1 29 29 WNW 12 19 30.06 1018 10 16.0934 0 0
4:56 pm 16:56 Sunny 79 26.1 43 6.1 28 28 NW 7 11 30.05 1018 10 16.0934 0 0
5:56 pm 17:56 Sunny 78 25.6 43 6.1 29 29 W 10 17 30.04 1017 10 16.0934 0 0
6:56 pm 18:56 Sunny 77 25 43 6.1 30 30 W 9 15 30.02 1017 10 16.0934 0 0
7:56 pm 19:56 Sunny 73 22.8 43 6.1 34 34 W 16 26 29.97 1015 10 16.0934 0 0
8:56 pm 20:56 Sunny 70 21.1 46 7.8 42 42 WSW 5 7 30.02 1017 10 16.0934 0 0
9:56 pm 21:56 Clear 65 18.3 47 8.3 52 52 SSW 6 9 30.03 1017 10 16.0934 0 0
10:56 pm 22:56 Clear 64 17.8 46 7.8 52 52 SW 6 9 30.04 1017 10 16.0934 0 0
11:56 pm 23:56 Clear 59 15 48 8.9 67 67 WNW 5 7 30.05 1018 10 16.0934 0 0

Powered by AerisWeather